Location: Hawaiian Village Mobile Home Park
(32.8359°N, 116.9792°W)
Time: 04:26:40
(UTC+00:00)

ADEOS - Pass Details

Date: 09 December 2021
Orbit: 792 x 795 km, 98.9° (Epoch: 23 January)

Event Time Altitude Azimuth Distance (km) Brightness Sun altitude
Rises 01:30:23 0° 199° (SSW) 3,279 7.4 -10.2°
Reaches altitude 10° 01:33:12 10° 214° (SW) 2,355 6.9 -10.8°
Maximum altitude 01:37:10 22° 264° (W) 1,677 6.3 -11.5°
Drops below altitude 10° 01:41:10 10° 314° (NW) 2,366 6.4 -12.3°
Sets 01:44:01 0° 330° (NNW) 3,300 6.9 -12.9°
